Location: ???? ?????
(30.0052°N, 31.2891°E)
Time: 21:57:14
(UTC+00:00)

Cosmos 1331 Rocket - Pass Details

Date: 26 May 2022
Orbit: 749 x 778 km, 74.0° (Epoch: 04 July)

Event Time Altitude Azimuth Distance (km) Brightness Sun altitude
Rises 02:21:52 0° 189° (S) 3,193 6.8 -7.4°
Reaches altitude 10° 02:24:13 10° 187° (S) 2,276 6.1 -7.0°
Maximum altitude 02:29:21 72° 104° (ESE) 800 4.3 -6.0°
Drops below altitude 10° 02:34:34 10° 21° (NNE) 2,308 7.3 -5.0°
Sets 02:36:57 0° 19° (NNE) 3,242 8.0 -4.6°
